| time (UTC) | temp C | wind direction | speed KPH | gust KPH | rain 1hr cm | rain 24hr cm | rain mn cm | humidity % | barometer mb |
| 20260506010206 | 28 | 221 | 0.0 | 0.0 | 0.00 | 0.00 | 0.00 | 77 | 1004.4 |
| 20260506005706 | 28 | 221 | 0.0 | 0.0 | 0.00 | 0.00 | 0.00 | 77 | 1004.4 |
| 20260506005206 | 28 | 221 | 0.0 | 0.0 | 0.00 | 0.00 | 0.00 | 77 | 1004.4 |
| 20260506004707 | 28 | 221 | 0.0 | 0.0 | 0.00 | 0.00 | 0.00 | 77 | 1004.4 |
| 20260506004207 | 28 | 221 | 0.0 | 6.4 | 0.00 | 0.00 | 0.00 | 76 | 1004.2 |
| 20260506003706 | 28 | 221 | 0.0 | 6.4 | 0.00 | 0.00 | 0.00 | 76 | 1004.2 |
| 20260506003206 | 28 | 221 | 0.0 | 6.4 | 0.00 | 0.00 | 0.00 | 75 | 1004.2 |
| 20260506002706 | 28 | 221 | 0.0 | 0.0 | 0.00 | 0.00 | 0.00 | 75 | 1004.2 |
| 20260506001705 | 28 | 221 | 0.0 | 0.0 | 0.00 | 0.00 | 0.00 | 76 | 1004.2 |
| 20260506001206 | 28 | 218 | 0.0 | 0.0 | 0.00 | 0.00 | 0.00 | 76 | 1004.1 |
| 20260506000706 | 28 | 218 | 0.0 | 0.0 | 0.00 | 0.00 | 0.00 | 76 | 1004.1 |
| 20260506000207 | 28 | 218 | 0.0 | 1.6 | 0.00 | 0.00 | 0.00 | 76 | 1004.1 |
| 20260505235706 | 28 | 218 | 0.0 | 1.6 | 0.00 | 0.00 | 0.00 | 75 | 1004.1 |
| 20260505235206 | 28 | 218 | 0.0 | 3.2 | 0.00 | 0.00 | 0.00 | 75 | 1004.0 |
| 20260505234706 | 28 | 218 | 0.0 | 3.2 | 0.00 | 0.00 | 0.00 | 75 | 1004.0 |
| 20260505234207 | 28 | 218 | 0.0 | 1.6 | 0.00 | 0.00 | 0.00 | 75 | 1003.9 |
| 20260505233706 | 28 | 218 | 0.0 | 0.0 | 0.00 | 0.00 | 0.00 | 75 | 1003.9 |
| 20260505232705 | 28 | 218 | 0.0 | 3.2 | 0.00 | 0.00 | 0.00 | 74 | 1004.0 |
| 20260505232210 | 28 | 218 | 0.0 | 8.0 | 0.00 | 0.00 | 0.00 | 74 | 1004.0 |
| 20260505231707 | 28 | 220 | 0.0 | 8.0 | 0.00 | 0.00 | 0.00 | 74 | 1003.9 |
| 20260505231206 | 28 | 220 | 0.0 | 8.0 | 0.00 | 0.00 | 0.00 | 73 | 1004.0 |
| 20260505230207 | 28 | 232 | 0.0 | 8.0 | 0.00 | 0.00 | 0.00 | 73 | 1003.7 |
| 20260505225706 | 28 | 222 | 0.0 | 8.0 | 0.00 | 0.00 | 0.00 | 73 | 1003.6 |
| 20260505224207 | 28 | 219 | 0.0 | 8.0 | 0.00 | 0.00 | 0.00 | 73 | 1003.6 |
| 20260505223206 | 29 | 213 | 0.0 | 8.0 | 0.00 | 0.00 | 0.00 | 72 | 1003.6 |
| 20260505222705 | 29 | 211 | 0.0 | 8.0 | 0.00 | 0.00 | 0.00 | 71 | 1003.6 |
| 20260505222206 | 29 | 212 | 0.0 | 8.0 | 0.00 | 0.00 | 0.00 | 71 | 1003.6 |
| 20260505221706 | 29 | 209 | 0.0 | 6.4 | 0.00 | 0.00 | 0.00 | 71 | 1003.6 |
| 20260505221206 | 29 | 208 | 0.0 | 8.0 | 0.00 | 0.00 | 0.00 | 71 | 1003.7 |
| 20260505220705 | 29 | 205 | 1.6 | 9.7 | 0.00 | 0.00 | 0.00 | 71 | 1003.7 |
| 20260505220207 | 29 | 203 | 1.6 | 9.7 | 0.00 | 0.00 | 0.00 | 70 | 1003.9 |
| 20260505215707 | 29 | 215 | 1.6 | 9.7 | 0.00 | 0.00 | 0.00 | 71 | 1004.0 |
| 20260505215206 | 29 | 207 | 1.6 | 8.0 | 0.00 | 0.00 | 0.00 | 72 | 1004.2 |
| 20260505214707 | 29 | 215 | 1.6 | 8.0 | 0.00 | 0.00 | 0.00 | 72 | 1004.2 |
| 20260505214207 | 28 | 215 | 1.6 | 8.0 | 0.00 | 0.00 | 0.00 | 72 | 1004.1 |
| 20260505213706 | 29 | 215 | 0.0 | 8.0 | 0.00 | 0.00 | 0.00 | 73 | 1004.3 |
| 20260505213206 | 28 | 214 | 0.0 | 8.0 | 0.00 | 0.00 | 0.00 | 73 | 1004.4 |
| 20260505212707 | 28 | 214 | 0.0 | 8.0 | 0.00 | 0.00 | 0.00 | 74 | 1004.4 |
| 20260505212206 | 28 | 214 | 0.0 | 8.0 | 0.00 | 0.00 | 0.00 | 73 | 1004.4 |
| 20260505211705 | 28 | 213 | 0.0 | 8.0 | 0.00 | 0.00 | 0.00 | 74 | 1004.3 |
| 20260505211207 | 28 | 213 | 0.0 | 8.0 | 0.00 | 0.00 | 0.00 | 73 | 1004.4 |
| 20260505210706 | 28 | 215 | 0.0 | 9.7 | 0.00 | 0.00 | 0.00 | 74 | 1004.4 |
| 20260505210207 | 28 | 215 | 0.0 | 9.7 | 0.00 | 0.00 | 0.00 | 73 | 1004.5 |
| 20260505205706 | 29 | 214 | 1.6 | 9.7 | 0.00 | 0.00 | 0.00 | 71 | 1004.5 |
| 20260505205206 | 29 | 211 | 1.6 | 9.7 | 0.00 | 0.00 | 0.00 | 72 | 1004.5 |
| 20260505204706 | 28 | 211 | 1.6 | 9.7 | 0.00 | 0.00 | 0.00 | 72 | 1004.7 |
| 20260505204207 | 28 | 211 | 1.6 | 8.0 | 0.00 | 0.00 | 0.00 | 73 | 1004.8 |
| 20260505203706 | 28 | 225 | 1.6 | 9.7 | 0.00 | 0.00 | 0.00 | 74 | 1005.1 |
| 20260505203206 | 28 | 209 | 1.6 | 11.3 | 0.00 | 0.00 | 0.00 | 74 | 1005.2 |
| 20260505202706 | 28 | 223 | 1.6 | 11.3 | 0.00 | 0.00 | 0.00 | 74 | 1005.4 |
| 20260505202207 | 28 | 213 | 1.6 | 11.3 | 0.00 | 0.00 | 0.00 | 74 | 1005.3 |
| 20260505201705 | 28 | 211 | 1.6 | 4.8 | 0.00 | 0.00 | 0.00 | 73 | 1005.4 |
| 20260505201206 | 28 | 281 | 0.0 | 11.3 | 0.00 | 0.00 | 0.00 | 74 | 1005.6 |
| 20260505200706 | 28 | 218 | 0.0 | 11.3 | 0.00 | 0.00 | 0.00 | 74 | 1005.6 |
| 20260505195705 | 28 | 194 | 0.0 | 14.5 | 0.00 | 0.00 | 0.00 | 76 | 1005.6 |
| 20260505195206 | 27 | 189 | 1.6 | 14.5 | 0.00 | 0.00 | 0.00 | 75 | 1005.7 |
| 20260505194705 | 27 | 209 | 1.6 | 14.5 | 0.00 | 0.00 | 0.00 | 75 | 1005.8 |
| 20260505194206 | 27 | 215 | 1.6 | 6.4 | 0.00 | 0.00 | 0.00 | 75 | 1005.8 |
| 20260505193207 | 27 | 225 | 1.6 | 11.3 | 0.00 | 0.00 | 0.00 | 77 | 1005.9 |
| 20260505192706 | 27 | 217 | 3.2 | 11.3 | 0.00 | 0.00 | 0.00 | 76 | 1005.9 |
| 20260505192207 | 27 | 213 | 3.2 | 9.7 | 0.00 | 0.00 | 0.00 | 76 | 1005.9 |
| 20260505191706 | 27 | 218 | 1.6 | 8.0 | 0.00 | 0.00 | 0.00 | 76 | 1006.0 |
| 20260505191206 | 27 | 218 | 0.0 | 9.7 | 0.00 | 0.00 | 0.00 | 77 | 1006.0 |
| 20260505190705 | 27 | 217 | 1.6 | 11.3 | 0.00 | 0.00 | 0.00 | 77 | 1006.0 |
| 20260505185706 | 26 | 214 | 1.6 | 11.3 | 0.00 | 0.00 | 0.00 | 78 | 1006.1 |
| 20260505185206 | 26 | 219 | 0.0 | 9.7 | 0.00 | 0.00 | 0.00 | 78 | 1006.2 |
| 20260505184706 | 26 | 234 | 1.6 | 9.7 | 0.00 | 0.00 | 0.00 | 78 | 1006.2 |
| 20260505184207 | 26 | 235 | 1.6 | 9.7 | 0.00 | 0.00 | 0.00 | 78 | 1006.3 |
| 20260505183706 | 26 | 222 | 1.6 | 9.7 | 0.00 | 0.00 | 0.00 | 79 | 1006.5 |
| 20260505183206 | 26 | 230 | 1.6 | 8.0 | 0.00 | 0.00 | 0.00 | 79 | 1006.5 |